Weather History for Monett, MO

Change the Weather History Date:

Tuesday, January 15, 2013

  Actual Average (KJLN) Record (KJLN)
Temperature  
Mean Temperature 24 °F 35 °F  
Max Temperature 30 °F 45 °F 68 °F (1952)
Min Temperature 17 °F 25 °F -1 °F (1979)
Degree Days  
Heating Degree Days 42 30  
Month to date heating degree days 450  
Since 1 July heating degree days 2067  
Cooling Degree Days 0 0  
Month to date cooling degree days 0  
Year to date cooling degree days 0  
Moisture  
Dew Point 18 °F    
Average Humidity 82    
Maximum Humidity 93    
Minimum Humidity 60    
Precipitation  
Precipitation 0.00 in 0.06 in 1.01 in (1949)
Month to date precipitation 1.00  
Year to date precipitation 1.00  
Sea Level Pressure  
Sea Level Pressure 30.22 in    
Wind  
Wind Speed 5 mph (NE)    
Max Wind Speed 9 mph    
Max Gust Speed -    
Visibility 10 miles    
Events      
T = Trace of Precipitation, MM = Missing Value Source: NWS Daily Summary

Daily Weather History Graph

Daily Weather History Graph

Search for Another Location

Airport:

Trip Planner

Search our weather history database for the weather conditions in past years. The results will help you decide how hot, cold, wet, or windy it might be!

Date:

Astronomy

Jan. 15, 2013 Rise Set
Actual Time 7:28 AM CST 5:23 PM CST
Civil Twilight 6:59 AM CST 5:51 PM CST
Nautical Twilight 6:27 AM CST 6:23 PM CST
Astronomical Twilight 5:56 AM CST 6:54 PM CST
Moon 9:41 AM CST (1/15) 10:05 PM CST (1/15)
Length of Visible Light 10h 52m
Length of Day
9h 55m
Waxing Crescent, 19% of the Moon is Illuminated
Jan 15
Waxing Crescent
Jan 18
First Quarter
Jan 26
Full
Feb 3
Last Quarter
Feb 10
New

Hourly Weather History & Observations

Time (CST) Temp. Windchill Dew Point Humidity Pressure Visibility Wind Dir Wind Speed Gust Speed Precip Events Conditions
12:15 AM 19.4 °F 11.5 °F 17.6 °F 93% 30.31 in 10.0 mi NE 5.8 mph - N/A   Clear
12:55 AM 19.4 °F 12.8 °F 15.8 °F 86% 30.29 in 10.0 mi NE 4.6 mph - N/A   Clear
1:15 AM 19.4 °F 12.8 °F 15.8 °F 86% 30.30 in 10.0 mi ENE 4.6 mph - N/A   Clear
1:55 AM 19.4 °F 11.5 °F 15.8 °F 86% 30.30 in 10.0 mi ENE 5.8 mph - N/A   Clear
2:15 AM 19.4 °F 12.8 °F 15.8 °F 86% 30.29 in 10.0 mi ENE 4.6 mph - N/A   Clear
2:35 AM 19.4 °F 14.3 °F 14.0 °F 80% 30.30 in 10.0 mi NE 3.5 mph - N/A   Clear
2:55 AM 19.4 °F 12.8 °F 14.0 °F 80% 30.30 in 10.0 mi ENE 4.6 mph - N/A   Clear
3:15 AM 17.6 °F 12.3 °F 14.0 °F 86% 30.29 in 10.0 mi ENE 3.5 mph - N/A   Clear
3:35 AM 19.4 °F 12.8 °F 14.0 °F 80% 30.28 in 10.0 mi ENE 4.6 mph - N/A   Clear
3:55 AM 17.6 °F 10.7 °F 14.0 °F 86% 30.27 in 10.0 mi NE 4.6 mph - N/A   Clear
4:15 AM 17.6 °F 9.3 °F 14.0 °F 86% 30.26 in 10.0 mi NE 5.8 mph - N/A   Clear
4:35 AM 17.6 °F 10.7 °F 14.0 °F 86% 30.26 in 10.0 mi NE 4.6 mph - N/A   Clear
4:55 AM 17.6 °F 12.3 °F 14.0 °F 86% 30.27 in 10.0 mi NE 3.5 mph - N/A   Clear
5:15 AM 17.6 °F - 14.0 °F 86% 30.27 in 10.0 mi Calm Calm - N/A   Clear
5:35 AM 17.6 °F 12.3 °F 14.0 °F 86% 30.27 in 10.0 mi ENE 3.5 mph - N/A   Clear
5:55 AM 17.6 °F 10.7 °F 14.0 °F 86% 30.27 in 10.0 mi ENE 4.6 mph - N/A   Clear
6:15 AM 17.6 °F 12.3 °F 14.0 °F 86% 30.26 in 10.0 mi NE 3.5 mph - N/A   Clear
6:35 AM 19.4 °F 11.5 °F 14.0 °F 80% 30.25 in 10.0 mi NE 5.8 mph - N/A   Clear
6:55 AM 19.4 °F 11.5 °F 14.0 °F 80% 30.25 in 10.0 mi NE 5.8 mph - N/A   Clear
7:15 AM 19.4 °F 14.3 °F 15.8 °F 86% 30.27 in 10.0 mi ENE 3.5 mph - N/A   Clear
7:35 AM 19.4 °F 12.8 °F 15.8 °F 86% 30.26 in 10.0 mi NE 4.6 mph - N/A   Scattered Clouds
7:55 AM 19.4 °F 11.5 °F 15.8 °F 86% 30.24 in 10.0 mi ENE 5.8 mph - N/A   Scattered Clouds
8:15 AM 19.4 °F 14.3 °F 15.8 °F 86% 30.26 in 10.0 mi ENE 3.5 mph - N/A   Mostly Cloudy
8:35 AM 21.2 °F 16.4 °F 15.8 °F 80% 30.28 in 10.0 mi East 3.5 mph - N/A   Overcast
8:55 AM 21.2 °F - 15.8 °F 80% 30.29 in 10.0 mi Calm Calm - N/A   Overcast
9:15 AM 21.2 °F - 15.8 °F 80% 30.29 in 10.0 mi Calm Calm - N/A   Overcast
9:35 AM 21.2 °F 16.4 °F 15.8 °F 80% 30.29 in 10.0 mi NE 3.5 mph - N/A   Overcast
9:55 AM 23.0 °F 18.4 °F 15.8 °F 74% 30.29 in 10.0 mi NNE 3.5 mph - N/A   Overcast
10:15 AM 23.0 °F 18.4 °F 17.6 °F 80% 30.28 in 10.0 mi ENE 3.5 mph - N/A   Overcast
10:35 AM 23.0 °F 15.8 °F 15.8 °F 74% 30.26 in 10.0 mi ENE 5.8 mph - N/A   Overcast
10:55 AM 24.8 °F 20.5 °F 17.6 °F 74% 30.27 in 10.0 mi NNE 3.5 mph - N/A   Overcast
11:15 AM 24.8 °F 19.1 °F 17.6 °F 74% 30.25 in 10.0 mi ENE 4.6 mph - N/A   Overcast
11:35 AM 26.6 °F 19.1 °F 19.4 °F 74% 30.23 in 10.0 mi NNE 6.9 mph - N/A   Overcast
11:55 AM 26.6 °F 19.1 °F 19.4 °F 74% 30.21 in 10.0 mi NE 6.9 mph - N/A   Overcast
12:35 PM 30.2 °F 25.4 °F 21.2 °F 69% 30.20 in 10.0 mi NNE 4.6 mph - N/A   Overcast
12:55 PM 30.2 °F 22.6 °F 21.2 °F 69% 30.18 in 10.0 mi NNE 8.1 mph - N/A   Overcast
1:35 PM 30.2 °F 22.6 °F 19.4 °F 64% 30.17 in 10.0 mi NE 8.1 mph - N/A   Overcast
1:55 PM 30.2 °F 23.4 °F 19.4 °F 64% 30.16 in 10.0 mi NE 6.9 mph - N/A   Overcast
2:15 PM 30.2 °F 22.6 °F 17.6 °F 60% 30.16 in 10.0 mi NE 8.1 mph - N/A   Overcast
2:35 PM 30.2 °F 24.3 °F 19.4 °F 64% 30.16 in 10.0 mi NE 5.8 mph - N/A   Overcast
2:55 PM 30.2 °F 23.4 °F 21.2 °F 69% 30.16 in 10.0 mi North 6.9 mph - N/A   Overcast
3:15 PM 30.2 °F 21.9 °F 23.0 °F 75% 30.16 in 10.0 mi North 9.2 mph - N/A   Overcast
3:35 PM 30.2 °F 22.6 °F 23.0 °F 75% 30.18 in 10.0 mi North 8.1 mph - N/A   Overcast
3:55 PM 30.2 °F 22.6 °F 23.0 °F 75% 30.18 in 10.0 mi North 8.1 mph - N/A   Overcast
4:15 PM 28.4 °F 22.2 °F 23.0 °F 80% 30.18 in 10.0 mi North 5.8 mph - N/A   Overcast
4:35 PM 28.4 °F 22.2 °F 23.0 °F 80% 30.18 in 10.0 mi NNE 5.8 mph - N/A   Overcast
5:15 PM 28.4 °F 22.2 °F 23.0 °F 80% 30.18 in 10.0 mi North 5.8 mph - N/A   Overcast
5:35 PM 28.4 °F 23.3 °F 23.0 °F 80% 30.18 in 10.0 mi North 4.6 mph - N/A   Overcast
6:15 PM 26.6 °F 21.2 °F 23.0 °F 86% 30.18 in 10.0 mi North 4.6 mph - N/A   Overcast
6:35 PM 26.6 °F 20.0 °F 23.0 °F 86% 30.18 in 10.0 mi NNW 5.8 mph - N/A   Overcast
6:55 PM 26.6 °F 20.0 °F 23.0 °F 86% 30.19 in 10.0 mi NNW 5.8 mph - N/A   Overcast
7:15 PM 24.8 °F 17.9 °F 21.2 °F 86% 30.20 in 10.0 mi North 5.8 mph - N/A   Overcast
7:35 PM 23.0 °F 17.0 °F 21.2 °F 93% 30.19 in 10.0 mi North 4.6 mph - N/A   Overcast
7:55 PM 23.0 °F 15.8 °F 21.2 °F 93% 30.18 in 10.0 mi North 5.8 mph - N/A   Overcast
8:15 PM 23.0 °F 17.0 °F 19.4 °F 86% 30.18 in 10.0 mi North 4.6 mph - N/A   Mostly Cloudy
8:35 PM 23.0 °F 15.8 °F 19.4 °F 86% 30.16 in 10.0 mi NNE 5.8 mph - N/A   Scattered Clouds
8:55 PM 23.0 °F 17.0 °F 19.4 °F 86% 30.15 in 10.0 mi NNE 4.6 mph - N/A   Clear
9:15 PM 21.2 °F 14.9 °F 19.4 °F 93% 30.16 in 10.0 mi North 4.6 mph - N/A   Clear
9:35 PM 21.2 °F - 19.4 °F 93% 30.16 in 10.0 mi Calm Calm - N/A   Clear
9:55 PM 23.0 °F - 19.4 °F 86% 30.17 in 10.0 mi Calm Calm - N/A   Clear
10:15 PM 21.2 °F - 19.4 °F 93% 30.16 in 10.0 mi Calm Calm - N/A   Clear
10:35 PM 21.2 °F - 19.4 °F 93% 30.16 in 10.0 mi Calm Calm - N/A   Clear
10:55 PM 21.2 °F - 19.4 °F 93% 30.16 in 10.0 mi Calm Calm - N/A   Clear
11:15 PM 21.2 °F - 19.4 °F 93% 30.15 in 10.0 mi Calm Calm - N/A   Clear
11:35 PM 21.2 °F - 19.4 °F 93% 30.15 in 10.0 mi Calm Calm - N/A   Clear